Previsão horária em Plestin-les-Grèves

Hoje, 8 Março, Segunda-feira

Tempo Temperatura Precipitação Vento Pressão Humidade
00:00 -1°C° 0 mm 4 m/s 762 mmHg 82%
01:00 0°C° 0 mm 3 m/s 762 mmHg 84%
02:00 -1°C° 0 mm 3 m/s 762 mmHg 86%
03:00 -1°C° 0 mm 3 m/s 762 mmHg 87%
04:00 -1°C° 0 mm 3 m/s 762 mmHg 87%
05:00 -1°C° 0 mm 3 m/s 762 mmHg 87%
06:00 -1°C° 0 mm 2 m/s 762 mmHg 86%
07:00 +1°C° 0 mm 3 m/s 762 mmHg 80%
08:00 +2°C° 0 mm 3 m/s 762 mmHg 73%
09:00 +4°C° 0 mm 3 m/s 762 mmHg 67%
10:00 +4°C° 0 mm 3 m/s 762 mmHg 65%
11:00 +5°C° 0 mm 3 m/s 762 mmHg 62%
12:00 +7°C° 0 mm 3 m/s 762 mmHg 60%
13:00 +7°C° 0 mm 3 m/s 762 mmHg 60%
14:00 +7°C° 0 mm 3 m/s 762 mmHg 61%
15:00 +7°C° 0 mm 3 m/s 761 mmHg 61%
16:00 +5°C° 0 mm 3 m/s 761 mmHg 67%
17:00 +4°C° 0 mm 2 m/s 761 mmHg 72%
18:00 +3°C° 0 mm 2 m/s 761 mmHg 78%
19:00 +2°C° 0 mm 2 m/s 761 mmHg 80%
20:00 +1°C° 0 mm 2 m/s 762 mmHg 83%
21:00 +2°C° 0 mm 1 m/s 762 mmHg 85%
22:00 +2°C° 0 mm 1 m/s 762 mmHg 85%
23:00 +2°C° 0 mm 1 m/s 762 mmHg 86%

Amanhã, 9 Março, Terça-feira

Tempo Temperatura Precipitação Vento Pressão Humidade
00:00 +1°C° 0 mm 1 m/s 762 mmHg 86%
01:00 +2°C° 0 mm 1 m/s 762 mmHg 86%
02:00 +2°C° 0 mm 1 m/s 762 mmHg 86%
03:00 +2°C° 0 mm 1 m/s 761 mmHg 86%
04:00 +2°C° 0 mm 1 m/s 761 mmHg 87%
05:00 +1°C° 0 mm 2 m/s 761 mmHg 88%
06:00 -1°C° 0 mm 2 m/s 761 mmHg 89%
07:00 +2°C° 0 mm 2 m/s 761 mmHg 84%
08:00 +3°C° 0 mm 2 m/s 761 mmHg 79%
09:00 +5°C° 0 mm 2 m/s 761 mmHg 74%
10:00 +6°C° 0 mm 2 m/s 761 mmHg 70%
11:00 +7°C° 0 mm 2 m/s 761 mmHg 65%
12:00 +9°C° 0 mm 2 m/s 761 mmHg 61%
13:00 +9°C° 0 mm 3 m/s 761 mmHg 61%
14:00 +9°C° 0 mm 3 m/s 760 mmHg 62%
15:00 +8°C° 0 mm 4 m/s 760 mmHg 62%
16:00 +7°C° 0 mm 4 m/s 759 mmHg 68%
17:00 +5°C° 0 mm 4 m/s 759 mmHg 75%
18:00 +4°C° 0 mm 4 m/s 758 mmHg 81%
19:00 +3°C° 0 mm 4 m/s 759 mmHg 80%
20:00 +2°C° 0 mm 5 m/s 759 mmHg 80%
21:00 +2°C° 0 mm 5 m/s 759 mmHg 79%
22:00 +2°C° 0 mm 6 m/s 758 mmHg 80%
23:00 +2°C° 0 mm 6 m/s 758 mmHg 80%

Depois de amanhã, 10 Março, Quarta-feira

Tempo Temperatura Precipitação Vento Pressão Humidade
00:00 +3°C° 0 mm 7 m/s 758 mmHg 81%
01:00 +2°C° 0 mm 8 m/s 757 mmHg 81%
02:00 +4°C° 0 mm 8 m/s 756 mmHg 81%
03:00 +3°C° 0 mm 9 m/s 756 mmHg 81%
04:00 +5°C° 0.1 mm 9 m/s 755 mmHg 83%
05:00 +5°C° 0.1 mm 10 m/s 755 mmHg 85%
06:00 +5°C° 0.1 mm 10 m/s 754 mmHg 87%
07:00 +6°C° 0.2 mm 10 m/s 754 mmHg 88%
08:00 +6°C° 0.2 mm 11 m/s 754 mmHg 90%
09:00 +7°C° 0.2 mm 11 m/s 753 mmHg 91%
10:00 +8°C° 0.6 mm 11 m/s 753 mmHg 92%
11:00 +8°C° 0.6 mm 10 m/s 753 mmHg 93%
12:00 +9°C° 0.6 mm 10 m/s 753 mmHg 94%
13:00 +9°C° 0.6 mm 10 m/s 752 mmHg 94%
14:00 +11°C° 0.6 mm 10 m/s 752 mmHg 94%
15:00 +11°C° 0.6 mm 10 m/s 751 mmHg 95%
16:00 +11°C° 0 mm 10 m/s 751 mmHg 93%
17:00 +11°C° 0 mm 10 m/s 751 mmHg 91%
18:00 +11°C° 0 mm 10 m/s 751 mmHg 90%
19:00 +11°C° 0.1 mm 10 m/s 751 mmHg 90%
20:00 +11°C° 0.1 mm 11 m/s 751 mmHg 91%
21:00 +11°C° 0.1 mm 11 m/s 751 mmHg 92%
22:00 +11°C° 0.1 mm 11 m/s 751 mmHg 91%
23:00 +11°C° 0.1 mm 11 m/s 750 mmHg 90%

11 Março, Quinta-feira

Tempo Temperatura Precipitação Vento Pressão Humidade
00:00 +11°C° 0.1 mm 11 m/s 750 mmHg 90%
01:00 +9°C° 0.1 mm 11 m/s 750 mmHg 88%
02:00 +9°C° 0.1 mm 11 m/s 750 mmHg 86%
03:00 +8°C° 0.1 mm 11 m/s 750 mmHg 84%
04:00 +8°C° 0 mm 10 m/s 750 mmHg 83%
05:00 +7°C° 0 mm 10 m/s 751 mmHg 83%
06:00 +7°C° 0 mm 9 m/s 751 mmHg 82%
07:00 +7°C° 0 mm 9 m/s 751 mmHg 80%
08:00 +7°C° 0 mm 10 m/s 752 mmHg 78%
09:00 +8°C° 0 mm 10 m/s 752 mmHg 76%
10:00 +8°C° 0.2 mm 10 m/s 752 mmHg 74%
11:00 +9°C° 0.2 mm 11 m/s 752 mmHg 71%
12:00 +9°C° 0.2 mm 11 m/s 753 mmHg 69%
13:00 +9°C° 0.1 mm 11 m/s 753 mmHg 67%
14:00 +9°C° 0.1 mm 11 m/s 753 mmHg 66%
15:00 +8°C° 0.1 mm 11 m/s 753 mmHg 64%
16:00 +8°C° 0.1 mm 10 m/s 753 mmHg 68%
17:00 +7°C° 0.1 mm 9 m/s 754 mmHg 72%
18:00 +6°C° 0.1 mm 8 m/s 754 mmHg 76%
19:00 +5°C° 0 mm 8 m/s 755 mmHg 76%
20:00 +5°C° 0 mm 7 m/s 755 mmHg 77%
21:00 +4°C° 0 mm 7 m/s 756 mmHg 78%
22:00 +4°C° 0 mm 7 m/s 756 mmHg 79%
23:00 +4°C° 0 mm 6 m/s 756 mmHg 80%

12 Março, Sexta-feira

Tempo Temperatura Precipitação Vento Pressão Humidade
00:00 +3°C° 0 mm 6 m/s 756 mmHg 82%
01:00 +4°C° 0 mm 7 m/s 756 mmHg 81%
02:00 +4°C° 0 mm 7 m/s 755 mmHg 81%
03:00 +4°C° 0 mm 7 m/s 755 mmHg 81%
04:00 +4°C° 0 mm 7 m/s 755 mmHg 81%
05:00 +4°C° 0 mm 7 m/s 755 mmHg 82%
06:00 +4°C° 0 mm 7 m/s 755 mmHg 82%
07:00 +5°C° 0 mm 8 m/s 755 mmHg 79%
08:00 +6°C° 0 mm 9 m/s 755 mmHg 76%
09:00 +7°C° 0 mm 9 m/s 755 mmHg 73%
10:00 +8°C° 0.1 mm 10 m/s 754 mmHg 71%
11:00 +8°C° 0.1 mm 10 m/s 754 mmHg 69%
12:00 +9°C° 0.1 mm 11 m/s 754 mmHg 68%
13:00 +8°C° 0.2 mm 11 m/s 754 mmHg 70%
14:00 +8°C° 0.2 mm 10 m/s 753 mmHg 72%
15:00 +8°C° 0.2 mm 10 m/s 753 mmHg 74%
16:00 +7°C° 0.2 mm 9 m/s 752 mmHg 77%
17:00 +7°C° 0.2 mm 9 m/s 752 mmHg 79%
18:00 +6°C° 0.2 mm 8 m/s 751 mmHg 81%
19:00 +6°C° 0.2 mm 8 m/s 751 mmHg 84%
20:00 +5°C° 0.2 mm 8 m/s 751 mmHg 86%
21:00 +5°C° 0.2 mm 8 m/s 750 mmHg 88%
22:00 +5°C° 0.7 mm 9 m/s 750 mmHg 88%
23:00 +5°C° 0.7 mm 10 m/s 750 mmHg 88%

13 Março, Sábado

Tempo Temperatura Precipitação Vento Pressão Humidade
00:00 +6°C° 0.7 mm 10 m/s 749 mmHg 87%
01:00 +5°C° 0.1 mm 9 m/s 749 mmHg 87%
02:00 +5°C° 0.1 mm 9 m/s 749 mmHg 87%
03:00 +4°C° 0.1 mm 8 m/s 749 mmHg 87%
04:00 +4°C° 0.1 mm 8 m/s 749 mmHg 88%
05:00 +4°C° 0.1 mm 7 m/s 749 mmHg 89%
06:00 +4°C° 0.1 mm 7 m/s 749 mmHg 90%
07:00 +5°C° 0.2 mm 8 m/s 750 mmHg 86%
08:00 +6°C° 0.2 mm 9 m/s 750 mmHg 83%
09:00 +7°C° 0.2 mm 10 m/s 750 mmHg 79%
10:00 +8°C° 0.1 mm 10 m/s 751 mmHg 74%
11:00 +8°C° 0.1 mm 10 m/s 751 mmHg 70%
12:00 +9°C° 0.1 mm 10 m/s 752 mmHg 65%
13:00 +9°C° 0.2 mm 10 m/s 752 mmHg 68%
14:00 +8°C° 0.2 mm 10 m/s 752 mmHg 71%
15:00 +8°C° 0.2 mm 9 m/s 752 mmHg 74%
16:00 +7°C° 0.1 mm 9 m/s 752 mmHg 78%
17:00 +7°C° 0.1 mm 8 m/s 752 mmHg 81%
18:00 +6°C° 0.1 mm 7 m/s 753 mmHg 85%
19:00 +6°C° 0 mm 7 m/s 753 mmHg 87%
20:00 +7°C° 0 mm 6 m/s 753 mmHg 89%
21:00 +5°C° 0 mm 6 m/s 754 mmHg 91%
22:00 +7°C° 0 mm 6 m/s 754 mmHg 91%
23:00 +7°C° 0 mm 6 m/s 754 mmHg 91%
Mostrar mais

Necessitamos do seu Consentimento

A Meteoprog e os seus Fornecedores de Serviços podem armazenar e aceder a dados pessoais como cookies, identificadores do dispositivo ou outras tecnologias semelhantes existentes no seu dispositivo e processar estes dados para personalizar conteúdos e anúncios, assim como funcionalidades nas redes sociais e análise de tráfego.

  • Armazenar e/ou aceder a informações no seu dispositivo

    Os cookies, identificadores do dispositivo ou outras informações podem ser armazenados ou acedidos no seu dispositivo, para os fins acima indicados.

  • Anúncios e conteúdos personalizados, medição de anúncios e conteúdos, dados sobre o público-alvo e desenvolvimento de produtos

    Os anúncios e os conteúdos podem ser personalizados com base num perfil. Podem ser adicionados dados adicionais para uma maior personalização dos anúncios e dos conteúdos. A eficácia dos anúncios e dos conteúdos pode ser medida. Podem ser obtidas informações sobre o público que visualizou os anúncios e os conteúdos. Estes dados podem ser usados para desenvolver ou melhorar sistemas, softwares ou a experiência do utilizador.

Ao clicar em "Eu concordo”, permitirá o uso de cookies, identificadores do dispositivo e web beacons mencionados ou outras tecnologias semelhantes. As configurações do navegador do seu dispositivo podem ser alteradas.

Para certos fins, podem ser invocados interesses legítimos ao invés de consentimento. Pode ler mais informação sobre este assunto na nossa Política de Privacidade e Cookies.